Location: Cold Norton
(51.6667°N, 0.6667°E)
Time: 01:17:56
(UTC+00:00)

Okean 1 Rocket - Pass Details

Date: 18 November 2025
Orbit: 599 x 628 km, 82.5° (Epoch: 13 December)

Event Time Altitude Azimuth Distance (km) Brightness Sun altitude
Rises 18:01:18 0° 172° (S) 2,889 6.5 -18.0°
Reaches altitude 10° 18:03:35 10° 166° (SSE) 1,983 5.6 -18.3°
Maximum altitude 18:07:47 46° 94° (E) 832 3.2 -19.0°
Enters shadow 18:08:25 43° 67° (ENE) 876 3.3 -19.1°
